Flag for Italy Weather past 2 weeks in Avellino, Italy

Now
57 °F

Clear.


Feels Like: 56 °F
Forecast: 55 / 81 °F
Wind: 7 mph from East

Location: Trevico

Current Time: Sep 17, 2014 at 5:58:51 AM

Latest Report: Sep 17, 2014 at 4:55 AM


Visibility: 10 mi

Pressure: 30.07 "Hg

Humidity: 67%

Dew point: 46 °F

Location of AvellinoLocation

Historic Weather in Avellino — Graph

°F

Avellino temperature yesterday

Maximum temperature yesterday: 66 °F (at 1:55 PM)
Minimum temperature yesterday: 57 °F (at 8:55 PM)
Average temperature yesterday: 61 °F

Past Weeks' High & Low Weather Summary

 TemperatureHumidityPressure
High68 °F (Sep 8, 2:55 PM)100% (Sep 2, 3:55 AM)30.12 "Hg (Sep 2, 3:55 AM)
Low52 °F (Sep 2, 3:55 AM)49% (Sep 14, 3:55 PM)29.62 "Hg (Sep 2, 3:55 AM)
Average60 °F83%29.98 "Hg
* Reported Sep 2 3:55 AM — Sep 17 3:55 AM, Avellino, Weather by CustomWeather, © 2014

Note: Actual official high and low records may vary slightly from our data, if they occured in-between our weather recording intervals... More about our weather records

Advertising

Avellino weather history for previous 24 hours

 ConditionsComfort  
Time TempWeatherWind HumidityBarometerVisibility
3:55 AM
Sep 17
57 °FClear.7 mph67%30.07 "Hg10 mi
2:55 AM57 °FClear.6 mph63%30.07 "Hg10 mi
1:55 AM57 °FClear.8 mph67%30.07 "Hg10 mi
12:55 AM57 °FClear.7 mph67%30.09 "Hg10 mi
11:55 PM
Sep 16
57 °FClear.6 mph72%30.07 "Hg10 mi
10:55 PM57 °FClear.7 mph94%30.07 "Hg10 mi
9:55 PM57 °FClear.8 mph100%30.07 "Hg10 mi
8:55 PM57 °FClear.9 mph100%30.07 "Hg10 mi
7:55 PM59 °FSunny.12 mph88%30.07 "Hg10 mi
6:55 PM59 °FScattered clouds.12 mph77%30.07 "HgN/A
5:55 PM63 °FScattered clouds.10 mph73%30.07 "HgN/A
4:55 PM63 °FScattered clouds.8 mph73%30.07 "HgN/A
3:55 PM66 °FScattered clouds.7 mph64%30.07 "HgN/A
2:55 PM66 °FScattered clouds.6 mph64%30.07 "HgN/A
1:55 PM66 °FScattered clouds.5 mph60%30.07 "HgN/A
12:55 PM64 °FPassing clouds.6 mph64%30.07 "HgN/A
11:55 AM63 °FPassing clouds.7 mph68%30.09 "HgN/A
10:55 AM63 °FSunny.2 mph77%30.07 "Hg10 mi
9:55 AM63 °FSunny.5 mph77%30.07 "Hg10 mi
8:55 AM61 °FSunny.2 mph72%30.07 "Hg10 mi
7:55 AM61 °FSunny.3 mph72%30.07 "Hg10 mi
Weather by CustomWeather, © 2014

See weather overviewHow to use our weather pages